EW6362 Weather Reports


Display with metric or nautical units.
time (UTC)temp
F
wind
direction
speed
MPH
gust
MPH
rain 1hr
in
rain 24hr
in
rain mn
in
humidity
%
barometer
mb
20260504174047 0 177 0.0 0.0 0.00 0.00 0.00 1017.6
20260504173818 0 234 0.0 0.0 0.00 0.00 0.00 1017.6
20260504173047 0 211 0.0 0.0 0.00 0.00 0.00 1017.7
20260504172545 0 126 0.0 0.0 0.00 0.00 0.00 1017.5
20260504172044 0 188 0.0 0.0 0.00 0.00 0.00 1017.5
20260504171543 0 207 0.0 0.0 0.00 0.00 0.00 1017.7
20260504171041 0 169 0.0 0.0 0.00 0.00 0.00 1017.8
20260504170542 0 123 0.0 0.0 0.00 0.00 0.00 1017.5
20260504151017 0 166 0.0 0.0 0.00 0.00 0.00 1018.4
20260504150517 0 149 0.0 0.0 0.00 0.00 0.00 1018.3
20260504141007 0 338 0.0 0.0 0.00 0.00 0.00 1018.5
20260504140505 0 338 0.0 0.0 0.00 0.00 0.00 1018.5
20260504130456 0 11 0.0 0.0 0.00 0.00 0.00 1018.5
20260504120222 0 11 0.0 0.0 0.00 0.00 0.00 1018.0
20260504110432 0 248 0.0 0.0 0.00 0.00 0.00 1017.7
20260504081830 0 249 0.0 0.0 0.00 0.00 0.00 1017.6
20260504081328 0 249 0.0 0.0 0.00 0.00 0.00 1017.7
20260504080829 0 249 0.0 0.0 0.00 0.00 0.00 1017.8
20260504080322 0 249 0.0 0.0 0.00 0.00 0.00 1017.8
20260504070301 0 249 0.0 0.0 0.00 0.00 0.00 1018.5
20260504060237 0 249 0.0 0.0 0.00 0.00 0.00 1019.0
20260504050715 0 263 0.0 0.0 0.00 0.00 0.00 1019.4
20260504050213 0 265 0.0 0.0 0.00 0.00 0.00 1019.5
20260504045714 0 265 0.0 0.0 0.00 0.00 0.00 1019.5
20260504045207 0 265 0.0 0.0 0.00 0.00 0.00 1019.5
20260504044936 0 266 0.0 0.0 0.00 0.00 0.00 1019.5
20260504044203 0 266 0.0 0.0 0.00 0.00 0.00 1019.5
20260504043701 0 266 0.0 0.0 0.00 0.00 0.00 1019.7
20260504043202 0 266 0.0 0.0 0.00 0.00 0.00 1019.7
20260504042659 0 267 0.0 0.0 0.00 0.00 0.00 1019.7
20260504042156 0 249 0.0 0.0 0.00 0.00 0.00 1019.6
20260504041657 0 249 0.0 0.0 0.00 0.00 0.00 1019.8
20260504041157 0 244 0.0 0.0 0.00 0.00 0.00 1019.7
20260504040655 0 244 0.0 0.0 0.00 0.00 0.00 1019.6
20260504040156 0 241 0.0 0.0 0.00 0.00 0.00 1019.6
20260504035650 0 239 0.0 0.0 0.00 0.00 0.00 1019.5
20260504035147 0 243 0.0 0.0 0.00 0.00 0.00 1019.4
20260504034916 0 242 0.0 0.0 0.00 0.00 0.00 1019.5
20260504034144 0 242 0.0 0.0 0.00 0.00 0.00 1019.6
20260504033643 0 242 0.0 0.0 0.00 0.00 0.00 1019.5
20260504033142 0 242 0.0 0.0 0.00 0.00 0.00 1019.6
20260504032912 0 229 0.0 0.0 0.00 0.00 0.00 1019.6
20260504032142 0 229 0.0 0.0 0.00 0.00 0.00 1019.6
20260504032138 0 229 0.0 0.0 0.00 0.00 0.00 1019.6
20260504031135 0 229 0.0 0.0 0.00 0.00 0.00 1019.7
20260504030635 0 223 0.0 0.0 0.00 0.00 0.00 1019.6
20260504030401 0 210 0.0 0.0 0.00 0.00 0.00 1019.6
20260504025628 0 210 0.0 0.0 0.00 0.00 0.00 1019.6
20260504025126 0 196 0.0 0.0 0.00 0.00 0.00 1019.5
20260504024856 0 232 0.0 0.0 0.00 0.00 0.00 1019.4
20260504024124 0 232 0.0 0.0 0.00 0.00 0.00 1019.3
20260504023625 0 231 0.0 0.0 0.00 0.00 0.00 1019.4
20260504023125 0 231 0.0 0.0 0.00 0.00 0.00 1019.4
20260504022621 0 220 0.0 0.0 0.00 0.00 0.00 1019.4
20260504022121 0 206 0.0 0.0 0.00 0.00 0.00 1019.3
20260504021620 0 220 0.0 0.0 0.00 0.00 0.00 1019.3
20260504021121 0 233 0.0 0.0 0.00 0.00 0.00 1019.2
20260504020620 0 213 0.0 0.0 0.00 0.00 0.00 1019.1
20260504020121 0 240 0.0 0.0 0.00 0.00 0.00 1019.0
20260504015848 0 239 0.0 0.0 0.00 0.00 0.00 1018.9
20260504015348 0 174 0.0 0.0 0.00 0.00 0.00 1018.9
20260504014618 0 165 0.0 0.0 0.00 0.00 0.00 1018.9
20260504014349 0 162 0.0 0.0 0.00 0.00 0.00 1018.8
20260504013616 0 311 0.0 0.0 0.00 0.00 0.00 1018.7
20260504013117 0 311 0.0 0.0 0.00 0.00 0.00 1018.7
20260504012612 0 311 0.0 0.0 0.00 0.00 0.00 1018.8
20260504012113 0 311 0.0 0.0 0.00 0.00 0.00 1018.6
20260504011613 0 311 0.0 0.0 0.00 0.00 0.00 1018.7
20260504011113 0 311 0.0 0.0 0.00 0.00 0.00 1018.6
20260504010612 0 311 0.0 0.0 0.00 0.00 0.00 1018.6
20260504010110 0 311 0.0 0.0 0.00 0.00 0.00 1018.5
20260504005839 0 311 0.0 0.0 0.00 0.00 0.00 1018.5
20260504005109 0 311 0.0 0.0 0.00 0.00 0.00 1018.5
20260504004607 0 311 0.0 0.0 0.00 0.00 0.00 1018.4
20260504004107 0 311 0.0 0.0 0.00 0.00 0.00 1018.4
20260504003604 0 313 0.0 0.0 0.00 0.00 0.00 1018.4
20260504003100 0 313 0.0 0.0 0.00 0.00 0.00 1018.4
20260504002600 0 311 0.0 0.0 0.00 0.00 0.00 1018.4
20260504002100 0 296 0.0 0.0 0.00 0.00 0.00 1018.3
20260504001828 0 296 0.0 0.0 0.00 0.00 0.00 1018.2
20260504001058 0 295 0.0 0.0 0.00 0.00 0.00 1018.3
20260504000558 0 325 0.0 0.0 0.00 0.00 0.00 1018.3
20260504000056 0 355 0.0 0.0 0.00 0.00 0.00 1018.3
20260503235557 0 319 0.0 0.0 0.00 0.00 0.00 1018.3
20260503235054 0 281 0.0 0.0 0.00 0.00 0.00 1018.3
20260503234556 0 286 0.0 0.0 0.00 0.00 0.00 1018.3
20260503234048 0 331 0.0 0.0 0.00 0.00 0.00 1018.4
20260503233546 0 13 0.0 0.0 0.00 0.00 0.00 1018.4
20260503233044 0 346 0.0 0.0 0.00 0.00 0.00 1018.4
20260503232542 0 306 0.0 0.0 0.00 0.00 0.00 1018.4
20260503232044 0 276 0.0 0.0 0.00 0.00 0.00 1018.5
20260503231540 0 305 0.0 0.0 0.00 0.00 0.00 1018.5
20260503231038 0 310 0.0 0.0 0.00 0.00 0.00 1018.6
20260503230538 0 302 0.0 0.0 0.00 0.00 0.00 1018.6
20260503230039 0 331 0.0 0.0 0.00 0.00 0.00 1018.6
20260503225536 0 336 0.0 0.0 0.00 0.00 0.00 1018.5
20260503225306 0 303 0.0 0.0 0.00 0.00 0.00 1018.7
20260503224534 0 300 0.0 0.0 0.00 0.00 0.00 1018.7
20260503224038 0 355 0.0 0.0 0.00 0.00 0.00 1018.6
20260503224034 0 350 0.0 0.0 0.00 0.00 0.00 1018.7
20260503223304 0 323 0.0 0.0 0.00 0.00 0.00 1018.7
20260503222531 0 331 0.0 0.0 0.00 0.00 0.00 1018.7
20260503222029 0 275 0.0 0.0 0.00 0.00 0.00 1018.7
20260503221759 0 298 0.0 0.0 0.00 0.00 0.00 1018.8
20260503221026 0 267 0.0 0.0 0.00 0.00 0.00 1018.8
20260503220524 0 30 0.0 0.0 0.00 0.00 0.00 1019.0
20260503220024 0 40 0.0 0.0 0.00 0.00 0.00 1018.9
20260503215755 0 293 0.0 0.0 0.00 0.00 0.00 1019.0
20260503215026 0 5 0.0 0.0 0.00 0.00 0.00 1019.1
20260503214518 0 308 0.0 0.0 0.00 0.00 0.00 1019.2
20260503214016 0 306 0.0 0.0 0.00 0.00 0.00 1019.2
20260503213514 0 309 0.0 0.0 0.00 0.00 0.00 1019.3
20260503213012 0 31 0.0 0.0 0.00 0.00 0.00 1019.3
20260503212517 0 306 0.0 0.0 0.00 0.00 0.00 1019.4
20260503212511 0 306 0.0 0.0 0.00 0.00 0.00 1019.6
20260503211507 0 346 0.0 0.0 0.00 0.00 0.00 1019.5
20260503211006 0 355 0.0 0.0 0.00 0.00 0.00 1019.6
20260503210505 0 321 0.0 0.0 0.00 0.00 0.00 1019.7
20260503210237 0 342 0.0 0.0 0.00 0.00 0.00 1019.8
20260503205505 0 336 0.0 0.0 0.00 0.00 0.00 1019.9
20260503205008 0 11 0.0 0.0 0.00 0.00 0.00 1020.1
20260503205004 0 339 0.0 0.0 0.00 0.00 0.00 1020.0
20260503204000 0 340 0.0 0.0 0.00 0.00 0.00 1020.1
20260503203501 0 325 0.0 0.0 0.00 0.00 0.00 1020.1
20260503202959 0 10 0.0 0.0 0.00 0.00 0.00 1020.1
20260503202458 0 78 0.0 0.0 0.00 0.00 0.00 1020.2
20260503201958 0 349 0.0 0.0 0.00 0.00 0.00 1020.3
20260503201457 0 22 0.0 0.0 0.00 0.00 0.00 1020.4
20260503200958 0 340 0.0 0.0 0.00 0.00 0.00 1020.5
20260503200728 0 297 0.0 0.0 0.00 0.00 0.00 1020.5
20260503195957 0 15 0.0 0.0 0.00 0.00 0.00 1020.6
20260503195458 0 346 0.0 0.0 0.00 0.00 0.00 1020.6
20260503194959 0 320 0.0 0.0 0.00 0.00 0.00 1020.7
20260503194451 0 350 0.0 0.0 0.00 0.00 0.00 1020.9
20260503193951 0 319 0.0 0.0 0.00 0.00 0.00 1021.0
20260503193449 0 63 0.0 0.0 0.00 0.00 0.00 1021.1
20260503192950 0 319 0.0 0.0 0.00 0.00 0.00 1021.1
20260503192447 0 341 0.0 0.0 0.00 0.00 0.00 1021.2
20260503191948 0 306 0.0 0.0 0.00 0.00 0.00 1021.3
20260503191441 0 292 0.0 0.0 0.00 0.00 0.00 1021.4
20260503190937 0 355 0.0 0.0 0.00 0.00 0.00 1021.4
20260503190713 0 20 0.0 0.0 0.00 0.00 0.00 1021.5
20260503190438 0 330 0.0 0.0 0.00 0.00 0.00 1021.4
20260503185709 0 19 0.0 0.0 0.00 0.00 0.00 1021.5
20260503185209 0 13 0.0 0.0 0.00 0.00 0.00 1021.6
20260503184438 0 9 0.0 0.0 0.00 0.00 0.00 1021.7
20260503183934 0 49 0.0 0.0 0.00 0.00 0.00 1021.8
20260503183434 0 347 0.0 0.0 0.00 0.00 0.00 1021.8
20260503182933 0 27 0.0 0.0 0.00 0.00 0.00 1021.8
20260503182705 0 46 0.0 0.0 0.00 0.00 0.00 1021.7
20260503181933 0 49 0.0 0.0 0.00 0.00 0.00 1021.9
20260503181435 0 5 0.0 0.0 0.00 0.00 0.00 1021.9
20260503180930 0 40 0.0 0.0 0.00 0.00 0.00 1021.9
20260503180429 0 24 0.0 0.0 0.00 0.00 0.00 1022.1
20260503175929 0 83 0.0 0.0 0.00 0.00 0.00 1022.1
20260503175430 0 71 0.0 0.0 0.00 0.00 0.00 1022.2
20260503174930 0 329 0.0 0.0 0.00 0.00 0.00 1022.3